| time (UTC) | temp F | wind direction | speed MPH | gust MPH | rain 1hr in | rain 24hr in | rain mn in | humidity % | barometer mb |
| 20260902083357 | 81 | 101 | 0.0 | 4.0 | 0.00 | 0.00 | 0.00 | 55 | 1022.8 |
| 20260902082859 | 81 | 127 | 0.0 | 2.0 | 0.00 | 0.00 | 0.00 | 58 | 1022.8 |
| 20260902081856 | 80 | 270 | 0.0 | 1.0 | 0.00 | 0.00 | 0.00 | 58 | 1022.8 |
| 20260902080853 | 79 | 295 | 0.0 | 2.0 | 0.00 | 0.00 | 0.00 | 60 | 1022.7 |
| 20260902080353 | 79 | 269 | 0.0 | 1.0 | 0.00 | 0.00 | 0.00 | 60 | 1022.7 |
| 20260902075851 | 79 | 110 | 0.0 | 2.0 | 0.00 | 0.00 | 0.00 | 58 | 1022.6 |
| 20260902075348 | 78 | 79 | 1.0 | 2.0 | 0.00 | 0.00 | 0.00 | 59 | 1022.5 |
| 20260902074843 | 78 | 78 | 0.0 | 2.0 | 0.00 | 0.00 | 0.00 | 59 | 1022.5 |
| 20260902073835 | 78 | 24 | 1.0 | 3.0 | 0.00 | 0.00 | 0.00 | 61 | 1022.3 |
| 20260902073335 | 77 | 22 | 1.0 | 3.0 | 0.00 | 0.00 | 0.00 | 59 | 1022.3 |
| 20260902072833 | 77 | 91 | 0.0 | 3.0 | 0.00 | 0.00 | 0.00 | 61 | 1022.3 |
| 20260902072330 | 77 | 91 | 0.0 | 3.0 | 0.00 | 0.00 | 0.00 | 61 | 1022.2 |
| 20260902071828 | 77 | 45 | 0.0 | 3.0 | 0.00 | 0.00 | 0.00 | 59 | 1022.2 |
| 20260902071328 | 78 | 4 | 0.0 | 1.0 | 0.00 | 0.00 | 0.00 | 61 | 1022.3 |
| 20260902070827 | 77 | 134 | 0.0 | 3.0 | 0.00 | 0.00 | 0.00 | 62 | 1022.2 |
| 20260902070327 | 77 | 117 | 0.0 | 3.0 | 0.00 | 0.00 | 0.00 | 61 | 1022.2 |
| 20260902065824 | 76 | 33 | 0.0 | 3.0 | 0.00 | 0.00 | 0.00 | 62 | 1022.2 |
| 20260902065323 | 75 | 24 | 1.0 | 4.0 | 0.00 | 0.00 | 0.00 | 64 | 1022.2 |
| 20260902064825 | 75 | 75 | 1.0 | 4.0 | 0.00 | 0.00 | 0.00 | 65 | 1022.2 |
| 20260902064325 | 75 | 50 | 0.0 | 3.0 | 0.00 | 0.00 | 0.00 | 65 | 1022.2 |
| 20260902063825 | 75 | 120 | 0.0 | 3.0 | 0.00 | 0.00 | 0.00 | 67 | 1022.1 |
| 20260902063323 | 74 | 34 | 1.0 | 5.0 | 0.00 | 0.00 | 0.00 | 69 | 1022.1 |
| 20260902062816 | 74 | 39 | 1.0 | 6.0 | 0.00 | 0.00 | 0.00 | 69 | 1022.0 |
| 20260902062311 | 74 | 16 | 1.0 | 6.0 | 0.00 | 0.00 | 0.00 | 68 | 1022.0 |
| 20260902061809 | 73 | 7 | 2.0 | 8.0 | 0.00 | 0.00 | 0.00 | 69 | 1022.0 |
| 20260902061308 | 73 | 23 | 3.0 | 8.0 | 0.00 | 0.00 | 0.00 | 69 | 1022.0 |
| 20260902060808 | 73 | 39 | 3.0 | 7.0 | 0.00 | 0.00 | 0.00 | 69 | 1022.1 |
| 20260902060307 | 72 | 6 | 2.0 | 6.0 | 0.00 | 0.00 | 0.00 | 71 | 1021.9 |
| 20260902055808 | 72 | 35 | 2.0 | 6.0 | 0.00 | 0.00 | 0.00 | 72 | 1021.9 |
| 20260902055307 | 72 | 28 | 2.0 | 5.0 | 0.00 | 0.00 | 0.00 | 72 | 1021.9 |
| 20260902054806 | 71 | 35 | 2.0 | 5.0 | 0.00 | 0.00 | 0.00 | 73 | 1021.9 |
| 20260902054306 | 71 | 41 | 2.0 | 5.0 | 0.00 | 0.00 | 0.00 | 73 | 1021.9 |
| 20260902053805 | 71 | 358 | 2.0 | 6.0 | 0.00 | 0.00 | 0.00 | 73 | 1021.8 |
| 20260902053301 | 71 | 14 | 3.0 | 7.0 | 0.00 | 0.00 | 0.00 | 73 | 1021.8 |
| 20260902052800 | 71 | 21 | 3.0 | 7.0 | 0.00 | 0.00 | 0.00 | 74 | 1021.8 |
| 20260902052306 | 71 | 14 | 3.0 | 7.0 | 0.00 | 0.00 | 0.00 | 75 | 1021.8 |
| 20260902051801 | 70 | 35 | 4.0 | 7.0 | 0.00 | 0.00 | 0.00 | 75 | 1021.7 |
| 20260902051301 | 70 | 31 | 3.0 | 7.0 | 0.00 | 0.00 | 0.00 | 76 | 1021.6 |
| 20260902050248 | 69 | 58 | 3.0 | 8.0 | 0.00 | 0.00 | 0.00 | 76 | 1021.6 |
| 20260902045746 | 69 | 27 | 3.0 | 8.0 | 0.00 | 0.00 | 0.00 | 77 | 1021.7 |
| 20260902045248 | 69 | 7 | 3.0 | 7.0 | 0.00 | 0.00 | 0.00 | 77 | 1021.6 |
| 20260902044745 | 69 | 23 | 2.0 | 6.0 | 0.00 | 0.00 | 0.00 | 77 | 1021.6 |
| 20260902043746 | 69 | 19 | 3.0 | 7.0 | 0.00 | 0.00 | 0.00 | 77 | 1021.7 |
| 20260902043247 | 69 | 32 | 3.0 | 7.0 | 0.00 | 0.00 | 0.00 | 77 | 1021.8 |
| 20260902042744 | 69 | 29 | 3.0 | 7.0 | 0.00 | 0.00 | 0.00 | 77 | 1021.8 |
| 20260902042245 | 69 | 26 | 3.0 | 7.0 | 0.00 | 0.00 | 0.00 | 77 | 1021.8 |
| 20260902041744 | 69 | 10 | 4.0 | 7.0 | 0.00 | 0.00 | 0.00 | 76 | 1021.8 |
| 20260902041248 | 69 | 20 | 4.0 | 7.0 | 0.00 | 0.00 | 0.00 | 77 | 1021.7 |
| 20260902040745 | 69 | 28 | 4.0 | 8.0 | 0.00 | 0.00 | 0.00 | 77 | 1021.6 |
| 20260902040245 | 69 | 34 | 4.0 | 8.0 | 0.00 | 0.00 | 0.00 | 77 | 1021.7 |
| 20260902035746 | 69 | 23 | 4.0 | 7.0 | 0.00 | 0.00 | 0.00 | 76 | 1021.7 |
| 20260902034743 | 69 | 36 | 5.0 | 10.0 | 0.00 | 0.00 | 0.00 | 76 | 1021.6 |
| 20260902034242 | 69 | 36 | 5.0 | 10.0 | 0.00 | 0.00 | 0.00 | 76 | 1021.6 |
| 20260902033743 | 69 | 4 | 5.0 | 9.0 | 0.00 | 0.00 | 0.00 | 76 | 1021.6 |
| 20260902033245 | 69 | 24 | 5.0 | 8.0 | 0.00 | 0.00 | 0.00 | 76 | 1021.6 |
| 20260902032745 | 69 | 27 | 4.0 | 8.0 | 0.00 | 0.00 | 0.00 | 76 | 1021.6 |
| 20260902031745 | 69 | 14 | 4.0 | 9.0 | 0.00 | 0.00 | 0.00 | 76 | 1021.7 |
| 20260902030742 | 69 | 354 | 5.0 | 9.0 | 0.00 | 0.00 | 0.00 | 76 | 1021.7 |
| 20260902030243 | 69 | 20 | 6.0 | 10.0 | 0.00 | 0.00 | 0.00 | 76 | 1021.8 |
| 20260902025739 | 69 | 50 | 6.0 | 10.0 | 0.00 | 0.00 | 0.00 | 76 | 1021.8 |
| 20260902025239 | 68 | 4 | 5.0 | 9.0 | 0.00 | 0.00 | 0.00 | 76 | 1021.7 |
| 20260902024739 | 68 | 27 | 5.0 | 8.0 | 0.00 | 0.00 | 0.00 | 77 | 1021.7 |
| 20260902024241 | 68 | 7 | 5.0 | 8.0 | 0.00 | 0.00 | 0.00 | 77 | 1021.7 |
| 20260902023741 | 68 | 41 | 5.0 | 10.0 | 0.00 | 0.00 | 0.00 | 77 | 1021.7 |
| 20260902023243 | 68 | 20 | 5.0 | 10.0 | 0.00 | 0.00 | 0.00 | 76 | 1021.7 |
| 20260902022739 | 68 | 29 | 5.0 | 10.0 | 0.00 | 0.00 | 0.00 | 76 | 1021.7 |
| 20260902022238 | 69 | 18 | 6.0 | 10.0 | 0.00 | 0.00 | 0.00 | 76 | 1021.6 |
| 20260902021735 | 69 | 25 | 6.0 | 10.0 | 0.00 | 0.00 | 0.00 | 76 | 1021.6 |
| 20260902021236 | 69 | 19 | 5.0 | 9.0 | 0.00 | 0.00 | 0.00 | 76 | 1021.6 |
| 20260902020734 | 68 | 32 | 5.0 | 9.0 | 0.00 | 0.00 | 0.00 | 76 | 1021.5 |
| 20260902020237 | 68 | 359 | 5.0 | 9.0 | 0.00 | 0.00 | 0.00 | 77 | 1021.6 |
| 20260902015734 | 68 | 34 | 5.0 | 10.0 | 0.00 | 0.00 | 0.00 | 77 | 1021.7 |
| 20260902015236 | 68 | 32 | 5.0 | 10.0 | 0.00 | 0.00 | 0.00 | 77 | 1021.6 |
| 20260902014735 | 69 | 6 | 5.0 | 9.0 | 0.00 | 0.00 | 0.00 | 77 | 1021.7 |
| 20260902014235 | 69 | 2 | 6.0 | 10.0 | 0.00 | 0.00 | 0.00 | 77 | 1021.7 |
| 20260902013733 | 69 | 46 | 6.0 | 10.0 | 0.00 | 0.00 | 0.00 | 76 | 1021.6 |
| 20260902013229 | 69 | 29 | 6.0 | 10.0 | 0.00 | 0.00 | 0.00 | 76 | 1021.7 |
| 20260902012730 | 69 | 31 | 5.0 | 10.0 | 0.00 | 0.00 | 0.00 | 76 | 1021.8 |
| 20260902012228 | 69 | 9 | 5.0 | 8.0 | 0.00 | 0.00 | 0.00 | 76 | 1021.7 |
| 20260902010731 | 70 | 40 | 4.0 | 8.0 | 0.00 | 0.00 | 0.00 | 76 | 1021.7 |
| 20260902010228 | 70 | 38 | 4.0 | 8.0 | 0.00 | 0.00 | 0.00 | 76 | 1021.7 |
| 20260902005728 | 70 | 345 | 4.0 | 7.0 | 0.00 | 0.00 | 0.00 | 76 | 1021.9 |
| 20260902005229 | 69 | 23 | 4.0 | 7.0 | 0.00 | 0.00 | 0.00 | 76 | 1021.8 |
| 20260902004727 | 69 | 6 | 5.0 | 9.0 | 0.00 | 0.00 | 0.00 | 76 | 1021.9 |
| 20260902003722 | 70 | 28 | 6.0 | 8.0 | 0.00 | 0.00 | 0.00 | 75 | 1021.8 |
| 20260902001719 | 71 | 28 | 5.0 | 9.0 | 0.00 | 0.00 | 0.00 | 73 | 1021.8 |
| 20260902000719 | 71 | 44 | 6.0 | 11.0 | 0.00 | 0.00 | 0.00 | 71 | 1022.0 |
| 20260902000218 | 71 | 19 | 6.0 | 11.0 | 0.00 | 0.00 | 0.00 | 70 | 1022.1 |
| 20260901235716 | 71 | 24 | 6.0 | 10.0 | 0.00 | 0.00 | 0.00 | 69 | 1022.0 |
| 20260901235218 | 72 | 22 | 5.0 | 10.0 | 0.00 | 0.00 | 0.00 | 67 | 1022.1 |
| 20260901234715 | 72 | 44 | 5.0 | 9.0 | 0.00 | 0.00 | 0.00 | 65 | 1022.0 |
| 20260901234214 | 73 | 37 | 4.0 | 9.0 | 0.00 | 0.00 | 0.00 | 65 | 1021.9 |
| 20260901233717 | 72 | 17 | 4.0 | 7.0 | 0.00 | 0.00 | 0.00 | 65 | 1022.0 |
| 20260901233212 | 73 | 28 | 4.0 | 7.0 | 0.00 | 0.00 | 0.00 | 64 | 1021.9 |
| 20260901232710 | 73 | 23 | 4.0 | 7.0 | 0.00 | 0.00 | 0.00 | 63 | 1022.0 |
| 20260901232212 | 74 | 24 | 3.0 | 6.0 | 0.00 | 0.00 | 0.00 | 62 | 1022.0 |
| 20260901231711 | 74 | 30 | 2.0 | 6.0 | 0.00 | 0.00 | 0.00 | 61 | 1022.0 |
| 20260901231212 | 74 | 20 | 2.0 | 4.0 | 0.00 | 0.00 | 0.00 | 61 | 1022.1 |
| 20260901230710 | 74 | 23 | 3.0 | 7.0 | 0.00 | 0.00 | 0.00 | 61 | 1022.1 |
| 20260901230210 | 74 | 32 | 3.0 | 7.0 | 0.00 | 0.00 | 0.00 | 62 | 1022.0 |
| 20260901225708 | 74 | 34 | 3.0 | 7.0 | 0.00 | 0.00 | 0.00 | 63 | 1022.1 |
| 20260901225208 | 73 | 15 | 2.0 | 5.0 | 0.00 | 0.00 | 0.00 | 64 | 1022.1 |
| 20260901224710 | 73 | 23 | 2.0 | 5.0 | 0.00 | 0.00 | 0.00 | 64 | 1022.1 |
| 20260901224206 | 73 | 22 | 2.0 | 5.0 | 0.00 | 0.00 | 0.00 | 65 | 1022.2 |
| 20260901223207 | 73 | 27 | 2.0 | 5.0 | 0.00 | 0.00 | 0.00 | 65 | 1022.2 |
| 20260901221702 | 74 | 14 | 1.0 | 3.0 | 0.00 | 0.00 | 0.00 | 64 | 1022.3 |
| 20260901221202 | 74 | 22 | 1.0 | 4.0 | 0.00 | 0.00 | 0.00 | 64 | 1022.2 |
| 20260901220201 | 73 | 11 | 1.0 | 3.0 | 0.00 | 0.00 | 0.00 | 65 | 1022.2 |
| 20260901215700 | 73 | 16 | 1.0 | 3.0 | 0.00 | 0.00 | 0.00 | 65 | 1022.2 |
| 20260901215201 | 73 | 13 | 0.0 | 3.0 | 0.00 | 0.00 | 0.00 | 65 | 1022.2 |
| 20260901214658 | 74 | 352 | 1.0 | 3.0 | 0.00 | 0.00 | 0.00 | 65 | 1022.2 |
| 20260901213701 | 74 | 8 | 1.0 | 4.0 | 0.00 | 0.00 | 0.00 | 64 | 1022.2 |
| 20260901213156 | 73 | 3 | 1.0 | 2.0 | 0.00 | 0.00 | 0.00 | 65 | 1022.1 |
| 20260901212654 | 73 | 14 | 0.0 | 1.0 | 0.00 | 0.00 | 0.00 | 66 | 1022.1 |
| 20260901212152 | 73 | 16 | 0.0 | 1.0 | 0.00 | 0.00 | 0.00 | 66 | 1022.0 |
| 20260901211652 | 73 | 14 | 0.0 | 2.0 | 0.00 | 0.00 | 0.00 | 66 | 1022.1 |
| 20260901211154 | 73 | 17 | 0.0 | 2.0 | 0.00 | 0.00 | 0.00 | 66 | 1022.2 |
| 20260901210650 | 74 | 8 | 0.0 | 2.0 | 0.00 | 0.00 | 0.00 | 65 | 1022.2 |
| 20260901210144 | 74 | 20 | 0.0 | 2.0 | 0.00 | 0.00 | 0.00 | 65 | 1022.2 |
| 20260901205142 | 74 | 317 | 0.0 | 3.0 | 0.00 | 0.00 | 0.00 | 64 | 1022.2 |
| 20260901204643 | 74 | 347 | 0.0 | 3.0 | 0.00 | 0.00 | 0.00 | 64 | 1022.2 |
| 20260901204143 | 74 | 329 | 1.0 | 4.0 | 0.00 | 0.00 | 0.00 | 64 | 1022.1 |
| 20260901203139 | 74 | 345 | 0.0 | 3.0 | 0.00 | 0.00 | 0.00 | 64 | 1022.0 |
| 20260901202141 | 74 | 3 | 1.0 | 3.0 | 0.00 | 0.00 | 0.00 | 65 | 1022.0 |
| 20260901200637 | 75 | 1 | 0.0 | 5.0 | 0.00 | 0.00 | 0.00 | 63 | 1022.1 |
| 20260901200136 | 75 | 8 | 0.0 | 5.0 | 0.00 | 0.00 | 0.00 | 63 | 1022.0 |
| 20260901195638 | 75 | 334 | 1.0 | 4.0 | 0.00 | 0.00 | 0.00 | 63 | 1022.0 |
| 20260901195134 | 75 | 325 | 0.0 | 4.0 | 0.00 | 0.00 | 0.00 | 63 | 1021.9 |
| 20260901194632 | 75 | 27 | 0.0 | 3.0 | 0.00 | 0.00 | 0.00 | 62 | 1022.0 |
| 20260901194133 | 75 | 342 | 0.0 | 1.0 | 0.00 | 0.00 | 0.00 | 62 | 1022.0 |
| 20260901193630 | 76 | 280 | 0.0 | 2.0 | 0.00 | 0.00 | 0.00 | 62 | 1021.9 |
| 20260901193128 | 76 | 349 | 0.0 | 3.0 | 0.00 | 0.00 | 0.00 | 61 | 1021.9 |
| 20260901192126 | 76 | 355 | 0.0 | 2.0 | 0.00 | 0.00 | 0.00 | 61 | 1021.8 |
| 20260901191627 | 76 | 304 | 0.0 | 1.0 | 0.00 | 0.00 | 0.00 | 60 | 1021.7 |
| 20260901191124 | 76 | 332 | 0.0 | 1.0 | 0.00 | 0.00 | 0.00 | 59 | 1021.6 |
| 20260901190622 | 76 | 339 | 0.0 | 1.0 | 0.00 | 0.00 | 0.00 | 59 | 1021.7 |
| 20260901190122 | 76 | 8 | 0.0 | 1.0 | 0.00 | 0.00 | 0.00 | 58 | 1021.7 |
| 20260901185116 | 76 | 335 | 0.0 | 1.0 | 0.00 | 0.00 | 0.00 | 57 | 1021.6 |
| 20260901184112 | 76 | 340 | 0.0 | 1.0 | 0.00 | 0.00 | 0.00 | 56 | 1021.5 |
| 20260901183614 | 77 | 355 | 0.0 | 1.0 | 0.00 | 0.00 | 0.00 | 56 | 1021.5 |
| 20260901183112 | 77 | 315 | 0.0 | 1.0 | 0.00 | 0.00 | 0.00 | 55 | 1021.5 |
| 20260901182605 | 77 | 264 | 0.0 | 1.0 | 0.00 | 0.00 | 0.00 | 54 | 1021.4 |
| 20260901182059 | 78 | 272 | 0.0 | 1.0 | 0.00 | 0.00 | 0.00 | 53 | 1021.4 |
| 20260901181059 | 78 | 277 | 0.0 | 3.0 | 0.00 | 0.00 | 0.00 | 52 | 1021.4 |
| 20260901180559 | 79 | 255 | 1.0 | 4.0 | 0.00 | 0.00 | 0.00 | 51 | 1021.5 |
| 20260901180059 | 79 | 285 | 1.0 | 4.0 | 0.00 | 0.00 | 0.00 | 50 | 1021.3 |
| 20260901175600 | 79 | 238 | 1.0 | 3.0 | 0.00 | 0.00 | 0.00 | 50 | 1021.3 |
| 20260901175102 | 80 | 255 | 0.0 | 3.0 | 0.00 | 0.00 | 0.00 | 49 | 1021.2 |
| 20260901174602 | 80 | 245 | 0.0 | 1.0 | 0.00 | 0.00 | 0.00 | 48 | 1021.3 |
| 20260901174059 | 81 | 257 | 0.0 | 2.0 | 0.00 | 0.00 | 0.00 | 47 | 1021.3 |
| 20260901173601 | 81 | 236 | 0.0 | 2.0 | 0.00 | 0.00 | 0.00 | 46 | 1021.2 |
| 20260901173100 | 82 | 264 | 0.0 | 2.0 | 0.00 | 0.00 | 0.00 | 45 | 1021.3 |
| 20260901172602 | 83 | 262 | 0.0 | 2.0 | 0.00 | 0.00 | 0.00 | 44 | 1021.3 |
| 20260901172102 | 84 | 245 | 0.0 | 1.0 | 0.00 | 0.00 | 0.00 | 43 | 1021.3 |
| 20260901171600 | 84 | 242 | 0.0 | 1.0 | 0.00 | 0.00 | 0.00 | 43 | 1021.3 |
| 20260901171053 | 85 | 241 | 0.0 | 1.0 | 0.00 | 0.00 | 0.00 | 42 | 1021.3 |
| 20260901170550 | 85 | 250 | 0.0 | 1.0 | 0.00 | 0.00 | 0.00 | 42 | 1021.4 |
| 20260901170044 | 85 | 256 | 0.0 | 3.0 | 0.00 | 0.00 | 0.00 | 42 | 1021.4 |
| 20260901165544 | 84 | 255 | 0.0 | 3.0 | 0.00 | 0.00 | 0.00 | 41 | 1021.3 |
| 20260901165043 | 84 | 249 | 1.0 | 4.0 | 0.00 | 0.00 | 0.00 | 42 | 1021.3 |
| 20260901164544 | 84 | 253 | 1.0 | 4.0 | 0.00 | 0.00 | 0.00 | 41 | 1021.4 |
| 20260901164043 | 85 | 229 | 1.0 | 4.0 | 0.00 | 0.00 | 0.00 | 40 | 1021.3 |
| 20260901163546 | 85 | 254 | 1.0 | 5.0 | 0.00 | 0.00 | 0.00 | 41 | 1021.3 |
| 20260901163044 | 85 | 281 | 2.0 | 6.0 | 0.00 | 0.00 | 0.00 | 41 | 1021.4 |
| 20260901162546 | 85 | 273 | 3.0 | 6.0 | 0.00 | 0.00 | 0.00 | 40 | 1021.4 |
| 20260901162044 | 85 | 276 | 3.0 | 8.0 | 0.00 | 0.00 | 0.00 | 40 | 1021.4 |
| 20260901161545 | 85 | 276 | 2.0 | 10.0 | 0.00 | 0.00 | 0.00 | 38 | 1021.4 |
| 20260901161048 | 86 | 273 | 1.0 | 10.0 | 0.00 | 0.00 | 0.00 | 38 | 1021.4 |
| 20260901160549 | 85 | 285 | 3.0 | 10.0 | 0.00 | 0.00 | 0.00 | 39 | 1021.4 |
| 20260901160058 | 85 | 301 | 3.0 | 10.0 | 0.00 | 0.00 | 0.00 | 38 | 1021.3 |
| 20260901155542 | 85 | 262 | 3.0 | 9.0 | 0.00 | 0.00 | 0.00 | 38 | 1021.3 |
| 20260901155044 | 85 | 269 | 3.0 | 8.0 | 0.00 | 0.00 | 0.00 | 37 | 1021.3 |
| 20260901154540 | 86 | 255 | 3.0 | 10.0 | 0.00 | 0.00 | 0.00 | 36 | 1021.3 |
| 20260901153043 | 86 | 288 | 4.0 | 12.0 | 0.00 | 0.00 | 0.00 | 34 | 1021.2 |
| 20260901152542 | 86 | 176 | 4.0 | 10.0 | 0.00 | 0.00 | 0.00 | 35 | 1021.3 |
| 20260901152040 | 86 | 297 | 5.0 | 12.0 | 0.00 | 0.00 | 0.00 | 35 | 1021.3 |
| 20260901151540 | 86 | 285 | 4.0 | 12.0 | 0.00 | 0.00 | 0.00 | 36 | 1021.2 |
| 20260901151040 | 87 | 288 | 2.0 | 11.0 | 0.00 | 0.00 | 0.00 | 37 | 1021.3 |
| 20260901150539 | 87 | 276 | 2.0 | 8.0 | 0.00 | 0.00 | 0.00 | 37 | 1021.2 |
| 20260901150039 | 87 | 270 | 1.0 | 6.0 | 0.00 | 0.00 | 0.00 | 38 | 1021.2 |
| 20260901145539 | 87 | 99 | 2.0 | 8.0 | 0.00 | 0.00 | 0.00 | 38 | 1021.3 |
| 20260901145041 | 87 | 318 | 3.0 | 8.0 | 0.00 | 0.00 | 0.00 | 37 | 1021.3 |
| 20260901144539 | 87 | 257 | 3.0 | 10.0 | 0.00 | 0.00 | 0.00 | 36 | 1021.3 |
| 20260901143540 | 87 | 255 | 3.0 | 8.0 | 0.00 | 0.00 | 0.00 | 36 | 1021.2 |
| 20260901143041 | 87 | 210 | 3.0 | 10.0 | 0.00 | 0.00 | 0.00 | 36 | 1021.3 |
| 20260901142040 | 87 | 235 | 5.0 | 11.0 | 0.00 | 0.00 | 0.00 | 36 | 1021.3 |
| 20260901141540 | 87 | 225 | 5.0 | 11.0 | 0.00 | 0.00 | 0.00 | 35 | 1021.3 |
| 20260901141040 | 87 | 278 | 3.0 | 10.0 | 0.00 | 0.00 | 0.00 | 36 | 1021.2 |
| 20260901140039 | 87 | 254 | 3.0 | 8.0 | 0.00 | 0.00 | 0.00 | 37 | 1021.1 |
| 20260901135539 | 87 | 269 | 3.0 | 8.0 | 0.00 | 0.00 | 0.00 | 36 | 1021.1 |
| 20260901135042 | 87 | 255 | 3.0 | 8.0 | 0.00 | 0.00 | 0.00 | 37 | 1021.2 |
| 20260901134543 | 87 | 288 | 3.0 | 14.0 | 0.00 | 0.00 | 0.00 | 37 | 1021.1 |
| 20260901134039 | 87 | 268 | 4.0 | 14.0 | 0.00 | 0.00 | 0.00 | 37 | 1021.2 |
| 20260901133539 | 87 | 268 | 4.0 | 10.0 | 0.00 | 0.00 | 0.00 | 36 | 1021.2 |
| 20260901133042 | 87 | 289 | 3.0 | 7.0 | 0.00 | 0.00 | 0.00 | 36 | 1021.2 |
| 20260901132542 | 88 | 252 | 2.0 | 7.0 | 0.00 | 0.00 | 0.00 | 37 | 1021.2 |
| 20260901131539 | 88 | 285 | 4.0 | 10.0 | 0.00 | 0.00 | 0.00 | 38 | 1021.3 |
| 20260901131039 | 87 | 252 | 4.0 | 11.0 | 0.00 | 0.00 | 0.00 | 39 | 1021.3 |
| 20260901130541 | 87 | 269 | 4.0 | 11.0 | 0.00 | 0.00 | 0.00 | 39 | 1021.3 |
| 20260901130042 | 87 | 248 | 3.0 | 11.0 | 0.00 | 0.00 | 0.00 | 36 | 1021.4 |
| 20260901125539 | 88 | 255 | 3.0 | 12.0 | 0.00 | 0.00 | 0.00 | 38 | 1021.4 |
| 20260901125038 | 87 | 257 | 3.0 | 12.0 | 0.00 | 0.00 | 0.00 | 37 | 1021.4 |
| 20260901124533 | 87 | 262 | 3.0 | 9.0 | 0.00 | 0.00 | 0.00 | 36 | 1021.5 |
| 20260901124026 | 88 | 288 | 3.0 | 9.0 | 0.00 | 0.00 | 0.00 | 38 | 1021.4 |
| 20260901123524 | 87 | 230 | 3.0 | 9.0 | 0.00 | 0.00 | 0.00 | 39 | 1021.4 |
| 20260901123023 | 87 | 285 | 3.0 | 9.0 | 0.00 | 0.00 | 0.00 | 40 | 1021.4 |
| 20260901122525 | 86 | 185 | 3.0 | 9.0 | 0.00 | 0.00 | 0.00 | 54 | 1021.4 |
| 20260901121523 | 86 | 263 | 3.0 | 10.0 | 0.00 | 0.00 | 0.00 | 56 | 1021.4 |
| 20260901121023 | 86 | 245 | 0.0 | 7.0 | 0.00 | 0.00 | 0.00 | 49 | 1021.5 |
| 20260901120523 | 86 | 213 | 0.0 | 3.0 | 0.00 | 0.00 | 0.00 | 51 | 1021.4 |
| 20260901120022 | 86 | 13 | 0.0 | 1.0 | 0.00 | 0.00 | 0.00 | 51 | 1021.5 |
| 20260901115521 | 85 | 310 | 0.0 | 3.0 | 0.00 | 0.00 | 0.00 | 50 | 1021.5 |
| 20260901115021 | 85 | 285 | 1.0 | 3.0 | 0.00 | 0.00 | 0.00 | 55 | 1021.6 |
| 20260901114517 | 86 | 42 | 1.0 | 5.0 | 0.00 | 0.00 | 0.00 | 54 | 1021.6 |
| 20260901114017 | 86 | 266 | 1.0 | 5.0 | 0.00 | 0.00 | 0.00 | 54 | 1021.6 |
| 20260901113518 | 86 | 24 | 0.0 | 3.0 | 0.00 | 0.00 | 0.00 | 54 | 1021.6 |
| 20260901113014 | 85 | 263 | 1.0 | 8.0 | 0.00 | 0.00 | 0.00 | 55 | 1021.7 |
| 20260901112516 | 85 | 338 | 2.0 | 8.0 | 0.00 | 0.00 | 0.00 | 56 | 1021.7 |
| 20260901112015 | 85 | 264 | 1.0 | 6.0 | 0.00 | 0.00 | 0.00 | 60 | 1021.7 |
| 20260901111516 | 84 | 207 | 1.0 | 5.0 | 0.00 | 0.00 | 0.00 | 58 | 1021.8 |
| 20260901111015 | 84 | 233 | 0.0 | 5.0 | 0.00 | 0.00 | 0.00 | 58 | 1021.7 |
| 20260901110515 | 84 | 325 | 0.0 | 4.0 | 0.00 | 0.00 | 0.00 | 59 | 1021.8 |
| 20260901110013 | 83 | 146 | 1.0 | 4.0 | 0.00 | 0.00 | 0.00 | 59 | 1021.8 |
| 20260901105011 | 83 | 333 | 1.0 | 4.0 | 0.00 | 0.00 | 0.00 | 60 | 1021.9 |
| 20260901103013 | 82 | 307 | 2.0 | 6.0 | 0.00 | 0.00 | 0.00 | 62 | 1021.8 |
| 20260901102510 | 81 | 262 | 2.0 | 6.0 | 0.00 | 0.00 | 0.00 | 63 | 1021.8 |
| 20260901101504 | 81 | 248 | 2.0 | 5.0 | 0.00 | 0.00 | 0.00 | 63 | 1021.8 |
| 20260901101004 | 81 | 220 | 1.0 | 6.0 | 0.00 | 0.00 | 0.00 | 63 | 1021.9 |
| 20260901100507 | 82 | 295 | 1.0 | 6.0 | 0.00 | 0.00 | 0.00 | 63 | 1021.9 |
| 20260901100005 | 81 | 59 | 1.0 | 5.0 | 0.00 | 0.00 | 0.00 | 64 | 1022.0 |
| 20260901095003 | 80 | 18 | 2.0 | 7.0 | 0.00 | 0.00 | 0.00 | 61 | 1021.9 |
| 20260901094005 | 81 | 285 | 1.0 | 4.0 | 0.00 | 0.00 | 0.00 | 64 | 1021.9 |
| 20260901093503 | 80 | 285 | 1.0 | 6.0 | 0.00 | 0.00 | 0.00 | 66 | 1021.9 |
| 20260901093003 | 80 | 278 | 1.0 | 6.0 | 0.00 | 0.00 | 0.00 | 65 | 1022.0 |
| 20260901092503 | 79 | 4 | 1.0 | 5.0 | 0.00 | 0.00 | 0.00 | 67 | 1022.0 |
| 20260901092003 | 79 | 23 | 1.0 | 5.0 | 0.00 | 0.00 | 0.00 | 69 | 1021.9 |
| 20260901091505 | 79 | 32 | 1.0 | 7.0 | 0.00 | 0.00 | 0.00 | 67 | 1022.0 |
| 20260901090457 | 78 | 54 | 2.0 | 7.0 | 0.00 | 0.00 | 0.00 | 68 | 1021.9 |
| 20260901085955 | 78 | 345 | 2.0 | 9.0 | 0.00 | 0.00 | 0.00 | 71 | 1021.8 |
| 20260901084953 | 77 | 26 | 3.0 | 8.0 | 0.00 | 0.00 | 0.00 | 70 | 1021.8 |
| 20260901084456 | 78 | 39 | 2.0 | 8.0 | 0.00 | 0.00 | 0.00 | 70 | 1021.8 |
| 20260901083955 | 77 | 27 | 3.0 | 10.0 | 0.00 | 0.00 | 0.00 | 71 | 1021.8 |